User: anonymous   Login
Location: Newark
(23.3970°S, 47.6010°W)
Time: 17:38:44
(UTC+00:00)
Language:

Transit 4A - Orbit

View from above orbital plane
View from above orbital plane
View from above satellite
View from above satellite

Ground track
Ground track

The orbit data is extracted from the following two-line orbital elements,

1   116U 61015A   20051.69285577 -.00000061 +00000-0 +12081-4 0  9992
2   116 066.8101 136.0908 0068877 091.3722 269.5249 13.91766134975435
Epoch (UTC): 20 February 2020 16:37:42
Eccentricity: 0.0068877
inclination: 66.8101°
perigee height: 872 km
apogee height: 973 km
right ascension of ascending node: 136.0908°
argument of perigee: 91.3722°
revolutions per day: 13.91766134
mean anomaly at epoch: 269.5249°
orbit number at epoch: 97543

The dashed part of the orbit path shows where the satellite is in the earth's shadow,  

DLR